Weather Roundup
Issued by NWS Chicago, IL

Home | Current Version | Previous Version | Graphics & Text | Print | Product List | Glossary On
Versions: 1 2 3 4 5 6 7 8 9 10 11 12 13 14 15 16 17 18 19 20 21 22 23 24 25 26 27 28 29 30 31 32 33 34 35 36 37 38 39 40 41 42 43 44 45 46 47 48 49 50
000
NZUS59 KLOT 271706
HRRLOT

CHICAGO AREA WEATHER ROUNDUP
NATIONAL WEATHER SERVICE CHICAGO/ROMEOVILLE IL
1200 PM CDT WED AUG 27 2014

NOTE: "FAIR" INDICATES FEW OR NO CLOUDS BELOW 12,000 FEET WITH NO
SIGNIFICANT WEATHER AND/OR OBSTRUCTIONS TO VISIBILITY.

* THESE STATIONS ARE NOT UNDER NWS QUALITY CONTROL. THEY ALSO MAY NOT
  REPORT WEATHER SUCH AS PRECIPITATION OR FOG.

ILZ005-006-012>014-019>023-271800-
NORTHEAST ILLINOIS

CITY           SKY/WX    TMP DP  RH WIND       PRES   REMARKS
OHARE          PTSUNNY   78  57  48 CALM      30.14S
MIDWAY         PTSUNNY   79  62  56 E7        30.14S HX  80
AURORA         MOSUNNY   80  62  54 VRB5      30.15S HX  81
LANSING*       MOSUNNY   76  61  60 E5        30.14S
JOLIET*        MOSUNNY   76  62  61 CALM      30.15S
WAUKEGAN       PTSUNNY   72  63  73 N5        30.16S
DUPAGE AIRPORT MOSUNNY   80  61  52 CALM      30.15S HX  81
WHEELING       SUNNY     78  61  55 CALM      30.16S HX  80
KANKAKEE*      SUNNY     78  66  67 NE3       30.14S HX  80
MORRIS*        PTSUNNY   77  67  71 CALM      30.14S
LEWIS AIRPORT* MOSUNNY   77  62  60 CALM      30.14S
NORTHERLY IS     N/A     73  64  73 NE5         N/A
$$

WIZ051-052-058>065-066-070>072-271800-
SOUTHEAST WISCONSIN

CITY           SKY/WX    TMP DP  RH WIND       PRES   REMARKS
MILWAUKEE      MOSUNNY   70  63  78 N10       30.18R
KENOSHA*       PTSUNNY   74  66  76 E8        30.17S
RACINE*        MOSUNNY   71  62  73 N8        30.19R
BURLINGTON     MOSUNNY   73  57  56 CALM      30.17S
WEST BEND      PTSUNNY   72  57  60 E6        30.19S
$$

INZ001>003-010>013-019-020-271800-
NORTHWEST INDIANA

CITY           SKY/WX    TMP DP  RH WIND       PRES   REMARKS
GARY*          PTSUNNY   77  63  61 NE9       30.15S
MICHIGAN CITY* NOT AVBL
RENSSELAER*    NOT AVBL
VALPARAISO     SUNNY     77  62  59 VRB5      30.15R
$$

LMZ740>746-271800-
SOUTHERN LAKE MICHIGAN

STATION/POSITION TIME  SKY/WX   TEMP WIND        PRES    VSBY
                                AIR  DIR/SP/G
                 (UTC)          (F)  (DEG/KT/KT) (MB)    (MI)
HARRISON CRIB    1700            70   30/  3/  5   N/A
BURNHAM HARBOR   1700            73   40/  5/  6   N/A
CALUMET HARBOR   1600            71   80/  5/  6 1019.4F
BURNS HARBOR     NOT AVBL
MICHIGAN CITY    1700            70   10/  8/ 10   N/A
$$

ABBREVIATIONS USED IN REMARKS
   TC - TEMPERATURE IN CELSIUS
  WCI - WIND CHILL INDEX
   HX - HEAT INDEX
  VSB - VISIBILITY
$$


USA.gov is the U.S. government's official web portal to all federal, state and local government web resources and services.